Weather History for PABT - September, 2013

Change the Weather History Date:

Saturday, September 14, 2013

  Actual Average Record
Temperature  
Mean Temperature 38 °F -  
Max Temperature 48 °F 52 °F 69 °F (1965)
Min Temperature 28 °F 34 °F 19 °F (1962)
Degree Days  
Heating Degree Days 27    
Moisture  
Dew Point 31 °F    
Average Humidity 87    
Maximum Humidity 100    
Minimum Humidity 52    
Precipitation  
Precipitation 0.00 in - - ()
Sea Level Pressure  
Sea Level Pressure 30.02 in    
Wind  
Wind Speed 3 mph (SE)    
Max Wind Speed 7 mph    
Max Gust Speed -    
Visibility 7 miles    
Events Fog , Rain    
Averages and records for this station are not official NWS values.
T = Trace of Precipitation, MM = Missing Value Source: NWS Daily Summary

Daily Weather History Graph

Daily Weather History Graph

Search for Another Location

Airport or City:

Trip Planner

Search our weather history database for the weather conditions in past years. The results will help you decide how hot, cold, wet, or windy it might be!

Date:

Astronomy

Sep. 14, 2013 Rise Set
Actual Time 7:22 AM AKDT 8:37 PM AKDT
Civil Twilight 6:27 AM AKDT 9:32 PM AKDT
Nautical Twilight 5:15 AM AKDT 10:43 PM AKDT
Astronomical Twilight 3:32 AM AKDT 12:22 AM AKDT
Moon 7:06 PM AKDT (9/14) 12:04 AM AKDT (9/14)
Length of Visible Light 15h 04m
Length of Day
13h 14m
Waxing Gibbous, 74% of the Moon is Illuminated
Sep 14
Waxing Gibbous
Sep 19
Full
Sep 26
Last Quarter
Oct 4
New
Oct 11
First Quarter

Hourly Weather History & Observations

Time (AKDT) Temp. Windchill Dew Point Humidity Pressure Visibility Wind Dir Wind Speed Gust Speed Precip Events Conditions
12:53 AM 37.0 °F 33.3 °F 33.1 °F 86% 29.94 in 10.0 mi SSW 4.6 mph - N/A   Clear
1:53 AM 33.1 °F - 32.0 °F 96% 29.96 in 10.0 mi Calm Calm - N/A   Clear
2:53 AM 30.9 °F 27.5 °F 30.0 °F 96% 29.97 in 10.0 mi East 3.5 mph - N/A   Clear
3:53 AM 28.9 °F - 28.0 °F 96% 29.97 in 10.0 mi Calm Calm - N/A   Clear
4:53 AM 30.0 °F 25.2 °F 28.0 °F 92% 29.98 in 10.0 mi SE 4.6 mph - N/A   Clear
5:53 AM 30.0 °F 26.5 °F 28.9 °F 96% 29.99 in 10.0 mi SE 3.5 mph - N/A   Partly Cloudy
6:44 AM 28.4 °F 24.6 °F 28.4 °F 100% 29.96 in 1.0 mi SSE 3.5 mph - N/A   Mist
6:53 AM 28.9 °F 23.9 °F 28.9 °F 100% 29.99 in 0.5 mi SE 4.6 mph - N/A Fog Light Freezing Fog
7:53 AM 30.0 °F - 30.0 °F 100% 30.00 in 1.0 mi Calm Calm - N/A   Clear
8:00 AM 30.2 °F - 30.2 °F 100% 29.97 in 1.0 mi Calm Calm - N/A   Scattered Clouds
8:24 AM 30.2 °F 25.4 °F 30.2 °F 100% 29.98 in 0.5 mi ESE 4.6 mph - N/A Fog Light Freezing Fog
8:42 AM 30.2 °F 26.7 °F 30.2 °F 100% 29.97 in 1.8 mi SE 3.5 mph - N/A Fog Patches of Fog
8:44 AM 30.2 °F 26.7 °F 30.2 °F 100% 29.98 in 3.0 mi SE 3.5 mph - N/A Fog Patches of Fog
8:53 AM 30.9 °F 26.2 °F 30.9 °F 100% 30.01 in 4.0 mi SE 4.6 mph - N/A Fog Patches of Fog
9:51 AM 33.8 °F 30.8 °F 32.0 °F 93% 29.99 in 5.0 mi SE 3.5 mph - N/A Fog Patches of Fog
9:53 AM 33.1 °F 30.0 °F 32.0 °F 96% 30.03 in 5.0 mi SE 3.5 mph - N/A Fog Patches of Fog
10:01 AM 33.8 °F - 33.8 °F 100% 29.99 in 4.0 mi Calm Calm - 0.00 in Fog , Rain Light Rain
10:44 AM 33.8 °F 29.6 °F 33.8 °F 100% 30.00 in 4.0 mi ESE 4.6 mph - 0.00 in Fog Overcast
10:53 AM 34.0 °F 29.8 °F 33.1 °F 96% 30.04 in 5.0 mi SE 4.6 mph - 0.00 in Fog Overcast
11:53 AM 37.0 °F - 32.0 °F 82% 30.05 in 10.0 mi Calm Calm - N/A   Overcast
12:53 PM 37.9 °F 35.5 °F 33.1 °F 83% 30.06 in 10.0 mi SE 3.5 mph - N/A   Overcast
1:32 PM 39.2 °F - 33.8 °F 81% 30.02 in 10.0 mi Calm Calm - N/A   Mostly Cloudy
1:53 PM 39.9 °F 36.7 °F 33.1 °F 77% 30.06 in 10.0 mi SSE 4.6 mph - N/A   Overcast
2:53 PM 41.0 °F 38.0 °F 33.1 °F 73% 30.07 in 10.0 mi SE 4.6 mph - N/A   Mostly Cloudy
3:53 PM 43.0 °F 40.3 °F 33.1 °F 68% 30.06 in 10.0 mi SSE 4.6 mph - N/A   Mostly Cloudy
4:53 PM 46.0 °F 43.1 °F 33.1 °F 61% 30.05 in 10.0 mi Variable 5.8 mph - N/A   Scattered Clouds
5:53 PM 46.0 °F 43.9 °F 33.1 °F 61% 30.05 in 10.0 mi Variable 4.6 mph - N/A   Scattered Clouds
6:53 PM 48.0 °F - 30.9 °F 52% 30.04 in 10.0 mi WSW 6.9 mph - N/A   Scattered Clouds
7:53 PM 45.0 °F 43.5 °F 32.0 °F 60% 30.05 in 10.0 mi SSW 3.5 mph - N/A   Partly Cloudy
8:53 PM 41.0 °F - 30.9 °F 67% 30.07 in 10.0 mi Calm Calm - N/A   Partly Cloudy
9:53 PM 32.0 °F - 28.9 °F 88% 30.08 in 10.0 mi Calm Calm - N/A   Partly Cloudy
10:53 PM 33.1 °F 30.0 °F 28.9 °F 85% 30.09 in 10.0 mi SE 3.5 mph - N/A   Clear
11:53 PM 32.0 °F 27.5 °F 28.0 °F 85% 30.11 in 10.0 mi ESE 4.6 mph - N/A   Clear